Wind_Speed
22 22 22 22 22 22 22 22 22 22 21 21 22 24 24 24 25 25 25 25 25 25 25 24 24 24 24 24 24 23 23 23 23 24 25 25 25 25 25 25 24 24 23
23 23 23 24 23 23 23 23 23 23 22 22 22 24 25 25 25 25 25 25 26 26 25 25 25 25 25 25 25 25 25 24 24 25 25 26 26 26 26 26 26 26 25
23 23 24 23 23 24 24 23 23 23 23 23 23 24 25 26 26 26 25 25 26 26 26 26 26 26 26 26 26 26 26 26 26 26 26 27 27 27 27 27 26 26 26
24 24 24 24 24 24 24 24 24 24 24 24 23 24 25 26 27 27 27 26 26 26 26 26 26 26 27 27 27 27 27 27 26 27 27 28 28 28 28 28 28 28 28
25 24 24 24 24 24 23 24 24 24 24 24 24 24 25 26 26 27 27 26 26 26 26 27 26 27 27 28 28 28 28 28 28 27 28 29 29 29 29 29 29 29 29
25 25 24 24 24 24 24 23 23 24 24 25 25 25 25 25 26 26 26 27 26 26 26 27 27 27 28 28 29 29 29 29 29 28 28 29 30 31 30 30 30 30 29
25 25 25 25 25 25 25 25 25 24 24 25 25 25 25 25 26 26 26 26 26 27 27 27 28 28 28 29 30 30 30 30 30 29 29 30 31 32 31 31 31 30 30
25 26 25 25 26 25 25 25 25 25 25 24 24 25 25 26 26 26 26 26 27 28 28 28 28 29 29 29 30 30 30 30 31 31 30 30 31 32 32 32 31 32 31
25 25 25 25 25 25 24 25 25 25 25 24 24 25 25 25 25 25 25 26 27 28 28 29 29 29 29 30 30 30 31 31 31 31 31 31 31 32 32 33 33 33 33
25 25 25 24 25 25 25 25 25 24 24 23 24 25 25 24 25 25 25 26 26 27 28 28 28 29 29 30 30 31 31 31 31 32 32 32 32 32 33 34 34 34 34
23 24 24 23 24 24 24 24 24 23 23 23 23 24 24 24 24 25 25 25 25 26 27 27 28 29 29 29 31 31 32 32 32 32 32 32 32 32 33 34 34 34 34
23 23 23 23 22 22 23 23 23 22 23 23 23 23 24 24 23 23 24 24 25 25 26 27 28 28 29 29 30 30 31 32 32 32 32 32 32 33 33 33 34 34 35
23 23 22 22 22 22 22 22 22 22 22 22 23 23 23 22 22 23 23 23 23 24 25 26 27 28 29 29 29 30 30 32 33 32 32 33 33 33 33 34 34 35 35
23 21 21 22 22 21 21 21 21 21 21 21 21 22 22 22 23 23 23 23 23 24 25 25 26 27 27 28 28 28 29 31 32 33 33 34 34 34 34 35 35 35 36
21 20 20 20 20 20 20 19 19 19 20 20 20 20 21 21 21 22 23 23 24 24 24 26 26 27 27 27 28 29 29 30 31 33 33 33 34 35 35 34 35 36 36
20 20 20 19 18 19 19 19 19 20 20 20 20 20 21 21 21 22 23 23 23 24 25 26 26 27 28 28 28 28 30 31 32 33 34 34 34 35 35 35 36 36 37
19 19 19 18 18 18 19 19 19 20 20 20 20 21 21 21 22 22 23 23 24 25 26 26 27 27 28 29 30 29 29 30 31 32 34 34 35 35 35 35 36 36 37
18 18 18 18 17 17 18 18 18 18 19 19 20 20 21 21 22 22 22 22 23 24 25 25 26 26 27 28 29 29 30 30 30 30 32 33 34 34 34 35 36 36 37
18 17 17 17 17 18 18 17 17 17 18 18 19 19 20 19 20 21 21 22 23 24 24 25 25 25 26 28 28 29 29 30 30 30 31 32 32 33 33 34 35 36 36
17 17 17 17 17 17 17 16 16 17 17 18 18 19 19 18 19 20 21 21 22 23 24 24 24 24 25 26 27 28 29 29 29 30 30 31 31 32 32 34 35 36 36
17 16 16 16 16 16 15 15 16 16 17 17 17 18 19 18 18 18 19 20 21 22 23 23 24 24 24 24 25 27 28 28 28 29 30 31 31 31 32 33 34 35 36
16 16 15 15 15 15 14 15 15 16 16 16 16 17 17 17 18 18 18 19 19 21 22 23 23 24 24 25 25 25 26 27 27 28 28 29 29 30 31 33 35 35 35
15 14 14 14 15 14 14 14 15 16 16 16 17 17 17 17 17 17 18 19 20 20 21 22 22 23 24 24 24 24 25 26 26 27 28 28 29 30 31 32 33 34 35
13 12 12 14 14 13 13 14 15 16 17 17 18 18 18 18 18 18 19 19 19 19 20 20 20 21 22 23 23 23 23 24 25 26 27 28 29 30 31 32 32 33 34
12 12 13 13 13 12 13 14 16 16 16 17 18 18 18 18 18 18 18 19 18 18 18 19 19 20 20 22 23 23 23 24 24 26 27 27 28 29 30 31 32 33 34
11 11 11 11 12 13 14 15 15 15 16 16 17 17 17 17 18 18 18 17 17 17 18 18 18 18 19 20 21 22 23 23 24 24 26 26 26 27 28 30 31 31 32
Wind_Direction
294 292 290 289 287 287 284 283 278 273 273 272 271 267 265 263 262 261 260 258 257 257 258 257 255 254 253 253 252 252 252 251 249 248 245 245 245 245 246 244 243 241 241
292 291 290 289 288 285 284 283 281 277 276 274 272 268 265 264 264 263 261 259 257 255 255 255 254 253 254 253 253 253 251 250 251 250 248 246 246 246 246 245 244 243 242
290 289 290 290 288 287 286 284 280 280 278 276 274 271 266 266 265 262 261 260 258 256 256 256 255 254 254 254 254 253 252 251 252 251 250 247 246 246 245 244 243 245 244
291 291 289 288 288 287 286 283 281 279 278 277 274 271 268 266 265 263 260 260 258 256 257 256 255 254 254 254 253 251 251 252 253 251 248 247 246 246 245 244 244 245 245
290 292 290 289 288 286 285 283 281 279 278 278 275 271 268 267 265 264 262 260 259 258 259 257 256 255 254 253 252 251 251 250 251 251 248 247 246 245 244 245 245 244 244
289 290 288 289 289 287 285 283 280 281 280 278 274 271 267 266 265 264 263 260 258 258 258 257 257 255 255 255 253 251 250 249 249 249 248 247 245 246 245 244 243 242 242
291 289 287 287 286 286 286 283 281 280 280 278 275 272 269 267 266 263 261 259 257 258 258 257 257 256 256 257 255 251 250 249 248 247 247 246 245 245 244 243 242 241 241
289 291 289 288 286 285 283 282 281 279 278 277 276 273 270 268 267 264 262 262 260 258 257 257 257 257 257 256 254 253 251 249 248 247 246 246 245 244 243 242 241 241 240
291 291 290 287 286 285 283 282 280 280 278 276 276 274 270 266 265 265 265 263 261 259 259 258 256 256 256 254 253 252 251 249 247 246 246 246 245 244 242 242 242 241 240
293 293 289 286 286 285 283 282 281 280 278 276 276 274 271 266 263 262 264 263 261 259 259 258 256 255 254 252 252 251 249 248 246 246 246 246 246 245 244 243 242 241 240
296 296 292 288 288 287 284 284 282 280 278 277 277 276 273 269 267 264 264 263 261 260 258 258 257 256 255 253 252 250 248 246 246 245 245 244 244 244 243 243 243 242 241
296 294 291 289 288 289 287 285 283 281 279 278 279 278 275 271 268 264 264 263 262 262 260 258 258 258 256 255 253 250 247 246 245 245 244 243 243 243 243 242 242 242 242
296 293 291 289 288 288 285 285 283 283 282 281 281 280 276 271 267 264 264 263 261 261 260 260 260 259 257 255 252 251 249 246 246 245 246 245 244 244 244 244 243 242 242
298 295 291 291 290 288 284 282 282 283 283 282 283 282 278 274 270 265 265 264 263 261 258 259 259 259 258 255 253 252 251 248 246 246 246 245 245 244 244 244 243 242 243
297 295 294 293 291 289 287 284 285 285 285 285 285 284 280 276 272 268 265 265 264 262 260 260 260 259 257 256 255 254 252 250 248 247 246 246 246 245 244 244 243 243 243
297 295 295 294 291 289 289 287 285 285 286 287 286 284 283 279 275 270 268 266 265 264 261 262 262 260 258 256 256 256 254 253 251 249 248 247 247 246 244 245 244 244 245
299 297 297 295 292 291 290 288 287 287 287 290 290 286 284 283 280 274 270 268 268 265 264 263 261 260 260 257 255 257 257 255 252 251 249 247 246 246 245 245 243 244 245
303 300 298 296 294 294 293 292 292 291 291 290 289 290 287 284 281 277 275 273 272 269 268 267 264 261 260 259 257 256 256 254 253 253 251 249 247 247 247 246 244 244 245
304 302 301 296 293 294 294 293 294 294 294 293 294 295 292 290 287 280 277 276 275 273 271 270 269 265 262 261 260 258 257 255 254 254 252 252 249 248 248 247 245 245 246
307 305 303 300 298 296 294 294 294 295 297 296 298 298 298 294 290 285 280 278 278 275 273 272 270 268 266 263 262 259 257 255 254 253 252 251 250 249 249 248 247 247 247
308 306 304 304 303 300 297 294 296 297 300 300 300 300 299 296 292 289 284 281 279 279 276 273 270 268 267 265 261 260 259 256 255 255 254 251 250 250 249 249 248 249 249
308 306 305 306 305 303 301 297 295 297 300 301 302 303 302 301 297 294 289 286 283 281 276 273 271 269 267 266 262 261 260 257 256 257 256 255 254 252 251 251 251 251 251
310 305 306 309 310 309 307 305 304 301 301 301 302 303 302 302 301 299 296 294 290 286 280 277 275 271 268 266 264 262 262 259 258 258 256 256 256 254 252 251 252 252 252
315 311 309 312 314 312 311 310 310 305 303 303 303 302 300 300 303 301 298 297 294 289 284 280 277 274 271 268 267 266 264 262 261 260 259 258 257 255 255 255 255 254 253
317 317 316 316 316 315 315 316 316 314 311 309 308 307 304 303 304 305 299 297 295 292 287 282 280 279 274 272 270 267 266 265 263 261 260 257 256 256 256 256 256 256 255
320 321 321 320 319 319 319 320 322 322 318 315 313 312 310 309 307 309 307 304 300 298 296 291 286 283 278 276 273 268 267 267 266 264 262 261 260 259 258 258 258 257 255
Height
5831 5829 5827 5826 5824 5822 5821 5820 5818 5817 5817 5816 5815 5815 5815 5814 5814 5814 5815 5815 5816 5816 5817 5817 5818 5819 5819 5820 5821 5822 5823 5824 5825 5826 5827 5828 5830 5831 5833 5834 5836 5838 5839
5825 5823 5822 5820 5818 5817 5815 5814 5813 5812 5811 5810 5809 5809 5808 5808 5808 5808 5808 5809 5810 5810 5810 5811 5811 5812 5813 5814 5815 5816 5817 5818 5819 5820 5821 5822 5824 5825 5827 5829 5831 5832 5834
5818 5817 5815 5813 5812 5810 5809 5808 5807 5805 5804 5803 5803 5802 5802 5802 5801 5802 5802 5803 5803 5803 5804 5804 5804 5806 5807 5808 5809 5809 5810 5811 5813 5814 5815 5816 5818 5819 5821 5823 5825 5827 5829
5812 5810 5809 5807 5805 5804 5802 5801 5800 5799 5798 5796 5796 5795 5795 5795 5795 5795 5795 5796 5796 5797 5797 5797 5798 5799 5800 5801 5802 5803 5804 5805 5806 5807 5808 5809 5811 5813 5815 5817 5819 5821 5823
5805 5803 5802 5800 5799 5798 5796 5795 5794 5792 5792 5790 5789 5788 5788 5788 5788 5788 5788 5788 5789 5789 5790 5791 5791 5792 5793 5794 5795 5796 5797 5798 5799 5800 5801 5802 5804 5806 5808 5810 5812 5814 5817
5798 5796 5795 5793 5792 5791 5789 5788 5787 5786 5785 5783 5783 5782 5781 5781 5781 5781 5781 5781 5781 5782 5783 5784 5784 5785 5786 5787 5788 5789 5790 5791 5791 5792 5794 5795 5797 5799 5801 5803 5805 5807 5810
5790 5788 5787 5786 5785 5783 5782 5781 5780 5779 5778 5776 5776 5775 5774 5774 5774 5773 5773 5774 5774 5775 5775 5776 5777 5777 5778 5779 5780 5781 5782 5783 5784 5785 5786 5788 5790 5792 5794 5796 5798 5801 5803
5784 5782 5780 5779 5777 5775 5775 5774 5773 5772 5771 5769 5768 5768 5767 5767 5766 5766 5766 5766 5766 5767 5767 5768 5768 5769 5770 5771 5772 5773 5774 5775 5776 5777 5779 5780 5782 5784 5786 5789 5791 5793 5796
5776 5774 5772 5771 5769 5769 5768 5767 5766 5765 5764 5762 5761 5760 5759 5759 5759 5759 5759 5759 5759 5759 5759 5759 5760 5761 5762 5762 5763 5764 5765 5767 5768 5769 5771 5773 5775 5777 5779 5781 5784 5786 5789
5769 5767 5765 5764 5763 5762 5761 5760 5759 5757 5756 5755 5754 5752 5752 5751 5751 5752 5751 5751 5751 5751 5751 5751 5752 5753 5753 5754 5755 5756 5757 5758 5760 5762 5763 5765 5767 5769 5771 5773 5776 5778 5781
5763 5761 5759 5758 5756 5755 5754 5752 5751 5750 5748 5747 5746 5745 5744 5743 5743 5743 5743 5743 5743 5743 5743 5743 5744 5744 5745 5746 5747 5747 5748 5750 5751 5753 5755 5757 5759 5761 5763 5766 5768 5770 5773
5757 5755 5753 5752 5750 5748 5747 5745 5744 5743 5741 5740 5739 5738 5737 5736 5735 5735 5735 5735 5735 5735 5734 5735 5735 5736 5737 5738 5738 5739 5740 5741 5743 5745 5747 5749 5751 5753 5755 5757 5760 5762 5765
5751 5749 5747 5746 5744 5742 5740 5739 5737 5736 5734 5733 5732 5731 5729 5728 5728 5728 5728 5728 5728 5727 5727 5727 5727 5728 5729 5730 5730 5731 5732 5733 5735 5737 5739 5741 5743 5745 5747 5749 5751 5754 5756
5745 5743 5741 5739 5737 5736 5734 5732 5730 5729 5728 5727 5725 5724 5723 5722 5721 5720 5720 5720 5720 5720 5720 5720 5720 5720 5721 5722 5723 5723 5724 5725 5727 5728 5730 5732 5734 5736 5738 5741 5743 5745 5748
5739 5737 5735 5732 5730 5729 5728 5727 5725 5723 5722 5720 5719 5717 5716 5715 5714 5713 5713 5713 5713 5713 5713 5713 5712 5712 5713 5714 5714 5715 5716 5717 5718 5720 5721 5723 5725 5727 5730 5732 5734 5737 5739
5733 5731 5729 5727 5725 5723 5722 5721 5720 5718 5717 5715 5713 5711 5710 5709 5707 5707 5706 5706 5705 5705 5705 5705 5705 5705 5705 5705 5706 5707 5708 5708 5710 5711 5713 5714 5716 5718 5721 5723 5725 5728 5731
5727 5725 5724 5721 5720 5718 5717 5715 5714 5712 5710 5709 5707 5705 5703 5702 5701 5700 5699 5699 5698 5698 5698 5697 5697 5697 5697 5697 5698 5699 5699 5700 5701 5702 5704 5705 5707 5709 5711 5714 5716 5719 5721
5722 5720 5718 5716 5714 5713 5711 5710 5708 5706 5705 5703 5701 5699 5697 5695 5694 5693 5692 5692 5691 5690 5690 5689 5689 5689 5689 5689 5690 5690 5691 5691 5692 5693 5694 5696 5698 5700 5702 5704 5707 5709 5711
5717 5715 5713 5711 5709 5708 5706 5704 5703 5701 5699 5697 5696 5693 5691 5688 5687 5686 5686 5685 5684 5683 5682 5682 5681 5681 5681 5681 5681 5682 5682 5683 5684 5685 5686 5687 5689 5690 5693 5695 5697 5700 5702
5712 5710 5708 5706 5704 5702 5701 5699 5698 5696 5694 5692 5690 5688 5685 5683 5682 5680 5679 5678 5677 5676 5675 5674 5673 5673 5673 5673 5673 5673 5674 5675 5675 5676 5677 5678 5680 5681 5684 5685 5688 5689 5691
5707 5705 5703 5701 5699 5697 5695 5694 5693 5692 5690 5687 5685 5683 5681 5678 5676 5674 5673 5672 5670 5669 5668 5667 5666 5666 5665 5665 5665 5665 5666 5666 5667 5668 5669 5670 5671 5673 5674 5676 5677 5679 5681
5702 5700 5698 5696 5694 5693 5691 5689 5688 5687 5684 5682 5680 5678 5676 5673 5671 5669 5667 5665 5664 5662 5661 5660 5659 5659 5658 5658 5658 5658 5658 5658 5659 5661 5661 5662 5663 5664 5665 5667 5668 5670 5671
5698 5696 5694 5692 5690 5688 5687 5685 5684 5682 5680 5678 5676 5673 5671 5668 5665 5663 5662 5660 5658 5656 5655 5654 5652 5651 5651 5650 5650 5650 5650 5651 5651 5652 5653 5654 5654 5655 5656 5657 5658 5660 5661
5694 5692 5690 5688 5687 5685 5683 5682 5680 5678 5675 5673 5671 5668 5666 5663 5661 5658 5657 5654 5652 5650 5648 5647 5646 5645 5644 5643 5643 5643 5643 5643 5644 5644 5644 5645 5646 5647 5647 5648 5649 5650 5651
5691 5689 5687 5685 5684 5682 5680 5678 5676 5673 5671 5668 5666 5663 5661 5658 5656 5653 5651 5649 5646 5644 5642 5640 5639 5638 5637 5636 5636 5636 5636 5636 5636 5636 5636 5637 5637 5638 5639 5639 5640 5640 5641
5689 5687 5685 5683 5681 5679 5677 5675 5672 5669 5667 5665 5662 5659 5656 5654 5651 5648 5646 5643 5641 5639 5637 5635 5633 5632 5631 5630 5629 5629 5629 5629 5629 5629 5628 5629 5629 5629 5630 5631 5631 5631 5632